Meath Environmental Platform

Observations for Trim Patrick St

Time AQI Temp °C Hum % Pres Pa CO μg/m³ H₂S μg/m³ NO μg/m³ NO₂ μg/m³ O₃ μg/m³ SO₂ μg/m³ PM1 μg/m³ PM2.5 μg/m³ PM10 μg/m³
Sunday 9 August 2026
00:44 2 19.2 66 77,357 0 2.24 1.64 14.14 39.02 1.26 2.86 6.83 7.51
00:43 2 19.2 66 77,270 0 3.52 1.64 21.77 39.19 0.9 2.86 6.83 7.51
00:41 2 19.3 67 77,056 0 4.94 1.37 19.92 37.82 0.76 2.86 6.09 6.7
00:40 2 19.2 66 76,940 0 5.89 1.38 29.44 53.19 0.63 2.86 6.83 7.51
00:38 2 19.3 66 76,706 0 5.81 1.38 25.73 47.04 0.43 2.86 6.11 6.73
00:37 2 19.3 65 76,566 0 5.94 1.39 40.11 46.18 0.49 2.86 6.2 6.82
00:36 2 19.3 66 76,474 0 1.63 1.5 12.5 43.3 1.5 2.86 6.88 7.57
00:35 2 19.3 66 76,442 0 4.2 1.6 17.2 39.07 0.98 2.86 6.86 7.55
00:34 2 19.3 66 76,385 0 5.49 1.53 30.53 48.84 0.5 2.86 7.61 8.37
00:32 2 19.3 66 76,299 0 2.6 1.62 18.29 43.15 1.22 2 6.16 6.78
00:29 2 19.3 66 76,287 0 0.26 2.38 13.62 40.38 1.7 3.71 6.9 7.59
00:26 2 19.3 65 76,311 0 2 2.02 12.72 40.72 0.91 2 5.45 6
00:25 2 19.3 65 76,319 0 2.47 2.07 21.63 42.2 0.62 2.86 6.22 6.84
00:24 2 19.3 65 76,327 0 1.26 1.45 15.59 41.29 0.71 2 5.46 6.01
00:23 2 19.4 65 76,364 0 0 1.49 12.15 42.03 1.17 2 6.92 7.62
00:22 2 19.4 64 76,405 0 3.52 1.86 19.24 40.14 0.45 2.86 7.01 7.71
00:21 2 19.3 65 76,431 0 1.87 1.52 14.06 38.42 1.17 2 6.17 6.79
00:20 2 19.4 66 76,444 0 2.47 1.72 15.73 40.16 0.57 2 5.43 5.97
00:19 2 19.4 65 76,462 0 2.55 1.65 14.05 38.34 0.73 2.86 6.92 7.62
00:18 2 19.4 65 76,468 0 3.91 1.53 24.36 42.66 0.79 2 6.17 6.79